Location: �chenoz-la-M�line
(47.6009°N, 6.1354°E)
Time: 14:41:23
(UTC+00:00)

Cosmos 972 Rocket - Pass Details

Date: 27 January 2021
Orbit: 713 x 1151 km, 75.8° (Epoch: 03 March)

Event Time Altitude Azimuth Distance (km) Brightness Sun altitude
Rises 05:13:45 0° 201° (SSW) 3,730 7.4 -19.2°
Reaches altitude 10° 05:16:26 10° 203° (SSW) 2,719 6.7 -18.8°
Maximum altitude 05:22:41 78° 289° (WNW) 918 4.2 -17.7°
Drops below altitude 10° 05:28:16 10° 17° (NNE) 2,436 6.7 -16.8°
Sets 05:30:33 0° 19° (NNE) 3,317 7.4 -16.4°
